Location: Wheeling
(40.0640°N, 80.7210°W)
Time: 13:17:18
(UTC-05:00)

ITAMSAT 1 - Pass Details

Date: 23 October 2021
Orbit: 784 x 796 km, 98.9° (Epoch: 01 December)

Event Time Altitude Azimuth Distance (km) Brightness Sun altitude
Rises 21:18:51 0° 217° (SW) 3,260 11.1 -32.6°
Reaches altitude 10° 21:22:48 10° 248° (WSW) 2,340 10.7 -33.3°
Maximum altitude 21:24:43 12° 270° (W) 2,206 10.7 -33.7°
Drops below altitude 10° 21:26:39 10° 292° (WNW) 2,348 10.9 -34.0°
Sets 21:30:39 0° 323° (NW) 3,286 11.5 -34.8°
